When you browse on this site, cookies collect data to enhance your experience and personalize the content and advertising you see.
Visit our Privacy Policy to learn more. By continuing to use the site, you agree to this use of cookies and data.
  • En España
  • Lista de países
  • Para 7 días
  • Temperatura del agua
  • Mapa Satelital
  • El tiempo en el mapa
  • Informadores
  • user-avatar
    Iniciar sesión

    Tiempo cada hora Dobrich

    Hoy, 21 Enero, Lunes

    Tiempo Temperatura Precipitaciones Viento Presión Humedad
    00:00 +4°C° 0 mm 3 mps 738 mmHg 96%
    01:00 +4°C° 0 mm 3 mps 738 mmHg 96%
    02:00 +3°C° 0 mm 4 mps 738 mmHg 94%
    03:00 +1°C° 0 mm 5 mps 738 mmHg 93%
    04:00 +1°C° 0 mm 5 mps 738 mmHg 91%
    05:00 -1°C° 0 mm 6 mps 738 mmHg 89%
    06:00 -1°C° 0 mm 5 mps 738 mmHg 90%
    07:00 -1°C° 0 mm 5 mps 739 mmHg 90%
    08:00 -2°C° 0 mm 5 mps 739 mmHg 90%
    09:00 -1°C° 0 mm 5 mps 740 mmHg 87%
    10:00 -1°C° 0 mm 5 mps 740 mmHg 84%
    11:00 0°C° 0 mm 5 mps 741 mmHg 80%
    12:00 0°C° 0 mm 5 mps 741 mmHg 77%
    13:00 +1°C° 0 mm 5 mps 741 mmHg 74%
    14:00 +1°C° 0 mm 4 mps 741 mmHg 71%
    15:00 0°C° 0 mm 4 mps 741 mmHg 73%
    16:00 +1°C° 0 mm 3 mps 742 mmHg 76%
    17:00 0°C° 0 mm 3 mps 742 mmHg 79%
    18:00 -1°C° 0 mm 3 mps 742 mmHg 81%
    19:00 -1°C° 0 mm 2 mps 742 mmHg 84%
    20:00 -2°C° 0 mm 2 mps 743 mmHg 87%
    21:00 -2°C° 0 mm 2 mps 743 mmHg 87%
    22:00 -2°C° 0 mm 2 mps 743 mmHg 86%
    23:00 -3°C° 0 mm 2 mps 743 mmHg 86%

    Mañana, 22 Enero, Martes

    Tiempo Temperatura Precipitaciones Viento Presión Humedad
    00:00 -3°C° 0 mm 2 mps 743 mmHg 86%
    01:00 -3°C° 0 mm 2 mps 743 mmHg 86%
    02:00 -3°C° 0 mm 2 mps 743 mmHg 86%
    03:00 -3°C° 0 mm 2 mps 743 mmHg 87%
    04:00 -3°C° 0 mm 2 mps 742 mmHg 89%
    05:00 -3°C° 0 mm 2 mps 742 mmHg 90%
    06:00 -2°C° 0 mm 2 mps 742 mmHg 90%
    07:00 -2°C° 0 mm 2 mps 742 mmHg 91%
    08:00 -1°C° 0 mm 3 mps 742 mmHg 91%
    09:00 -1°C° 0 mm 3 mps 742 mmHg 88%
    10:00 -1°C° 0 mm 4 mps 742 mmHg 85%
    11:00 0°C° 0 mm 4 mps 741 mmHg 82%
    12:00 0°C° 0.2 mm 4 mps 741 mmHg 83%
    13:00 0°C° 0.2 mm 4 mps 740 mmHg 84%
    14:00 0°C° 0.2 mm 5 mps 740 mmHg 86%
    15:00 0°C° 0.1 mm 5 mps 739 mmHg 88%
    16:00 0°C° 0.1 mm 5 mps 738 mmHg 90%
    17:00 0°C° 0.1 mm 5 mps 738 mmHg 92%
    18:00 0°C° 0.1 mm 5 mps 738 mmHg 93%
    19:00 +1°C° 0.1 mm 5 mps 737 mmHg 94%
    20:00 +1°C° 0.1 mm 5 mps 737 mmHg 95%
    21:00 +1°C° 0.1 mm 5 mps 736 mmHg 95%
    22:00 +2°C° 0.1 mm 6 mps 736 mmHg 95%
    23:00 +2°C° 0.1 mm 6 mps 736 mmHg 95%

    Pasado mañana, 23 Enero, Miércoles

    Tiempo Temperatura Precipitaciones Viento Presión Humedad
    00:00 +2°C° 0 mm 6 mps 735 mmHg 95%
    01:00 +2°C° 0 mm 6 mps 734 mmHg 96%
    02:00 +3°C° 0 mm 6 mps 734 mmHg 96%
    03:00 +3°C° 0.2 mm 6 mps 733 mmHg 96%
    04:00 +3°C° 0.2 mm 6 mps 732 mmHg 96%
    05:00 +3°C° 0.2 mm 7 mps 731 mmHg 97%
    06:00 +4°C° 1.7 mm 7 mps 731 mmHg 96%
    07:00 +4°C° 1.7 mm 7 mps 731 mmHg 96%
    08:00 +4°C° 1.7 mm 6 mps 731 mmHg 95%
    09:00 +5°C° 0 mm 7 mps 731 mmHg 92%
    10:00 +6°C° 0 mm 7 mps 731 mmHg 88%
    11:00 +8°C° 0 mm 7 mps 731 mmHg 85%
    12:00 +9°C° 0 mm 7 mps 730 mmHg 79%
    13:00 +10°C° 0 mm 6 mps 730 mmHg 73%
    14:00 +11°C° 0 mm 6 mps 730 mmHg 68%
    15:00 +10°C° 0 mm 5 mps 730 mmHg 72%
    16:00 +10°C° 0 mm 4 mps 730 mmHg 77%
    17:00 +9°C° 0 mm 2 mps 730 mmHg 82%
    18:00 +8°C° 0 mm 3 mps 730 mmHg 84%
    19:00 +8°C° 0 mm 3 mps 730 mmHg 86%
    20:00 +7°C° 0 mm 3 mps 730 mmHg 89%
    21:00 +6°C° 0 mm 4 mps 730 mmHg 90%
    22:00 +6°C° 0 mm 4 mps 730 mmHg 92%
    23:00 +6°C° 0 mm 5 mps 730 mmHg 93%

    24 Enero, Jueves

    Tiempo Temperatura Precipitaciones Viento Presión Humedad
    00:00 +6°C° 0 mm 5 mps 731 mmHg 93%
    01:00 +6°C° 0 mm 5 mps 731 mmHg 93%
    02:00 +6°C° 0 mm 5 mps 731 mmHg 92%
    03:00 +6°C° 0.6 mm 4 mps 730 mmHg 94%
    04:00 +6°C° 0.6 mm 4 mps 730 mmHg 95%
    05:00 +6°C° 0.6 mm 4 mps 730 mmHg 97%
    06:00 +6°C° 0.5 mm 4 mps 730 mmHg 97%
    07:00 +6°C° 0.5 mm 4 mps 730 mmHg 97%
    08:00 +6°C° 0.5 mm 4 mps 730 mmHg 96%
    09:00 +7°C° 0.1 mm 5 mps 730 mmHg 91%
    10:00 +8°C° 0.1 mm 5 mps 730 mmHg 86%
    11:00 +9°C° 0.1 mm 5 mps 731 mmHg 81%
    12:00 +9°C° 0 mm 6 mps 730 mmHg 77%
    13:00 +9°C° 0 mm 6 mps 730 mmHg 73%
    14:00 +10°C° 0 mm 7 mps 730 mmHg 69%
    15:00 +8°C° 0 mm 7 mps 730 mmHg 77%
    16:00 +6°C° 0 mm 7 mps 730 mmHg 84%
    17:00 +4°C° 0 mm 7 mps 730 mmHg 92%
    18:00 +4°C° 0.1 mm 7 mps 730 mmHg 91%
    19:00 +4°C° 0.1 mm 7 mps 731 mmHg 91%
    20:00 +3°C° 0.1 mm 7 mps 731 mmHg 90%
    21:00 +2°C° 0.1 mm 8 mps 731 mmHg 91%
    22:00 +2°C° 0.1 mm 8 mps 732 mmHg 91%
    23:00 +1°C° 0.1 mm 8 mps 732 mmHg 91%

    25 Enero, Viernes

    Tiempo Temperatura Precipitaciones Viento Presión Humedad
    00:00 +1°C° 0.2 mm 8 mps 732 mmHg 91%
    01:00 +2°C° 0.2 mm 7 mps 732 mmHg 91%
    02:00 +2°C° 0.2 mm 7 mps 732 mmHg 91%
    03:00 0°C° 0.1 mm 7 mps 732 mmHg 91%
    04:00 -1°C° 0.1 mm 7 mps 732 mmHg 91%
    05:00 -1°C° 0.1 mm 7 mps 732 mmHg 91%
    06:00 -1°C° 0.2 mm 7 mps 732 mmHg 91%
    07:00 -1°C° 0.2 mm 7 mps 733 mmHg 92%
    08:00 -1°C° 0.2 mm 7 mps 733 mmHg 92%
    09:00 -1°C° 0.2 mm 7 mps 733 mmHg 91%
    10:00 -1°C° 0.2 mm 7 mps 733 mmHg 91%
    11:00 -1°C° 0.2 mm 7 mps 734 mmHg 90%
    12:00 -1°C° 0.1 mm 7 mps 733 mmHg 91%
    13:00 -1°C° 0.1 mm 7 mps 733 mmHg 91%
    14:00 -1°C° 0.1 mm 7 mps 733 mmHg 91%
    15:00 -1°C° 0.3 mm 7 mps 733 mmHg 92%
    16:00 -1°C° 0.3 mm 7 mps 732 mmHg 93%
    17:00 -1°C° 0.3 mm 7 mps 732 mmHg 94%
    18:00 0°C° 0.5 mm 7 mps 732 mmHg 95%
    19:00 +1°C° 0.5 mm 6 mps 732 mmHg 95%
    20:00 +2°C° 0.5 mm 6 mps 732 mmHg 96%
    21:00 +2°C° 0.3 mm 6 mps 732 mmHg 96%
    22:00 +2°C° 0.3 mm 6 mps 732 mmHg 97%
    23:00 +3°C° 0.3 mm 6 mps 732 mmHg 97%

    26 Enero, Sábado

    Tiempo Temperatura Precipitaciones Viento Presión Humedad
    00:00 +3°C° 0.7 mm 6 mps 731 mmHg 97%
    01:00 +3°C° 0.7 mm 6 mps 731 mmHg 97%
    02:00 +3°C° 0.7 mm 6 mps 731 mmHg 97%
    03:00 +3°C° 1.7 mm 6 mps 730 mmHg 97%
    04:00 +3°C° 1.7 mm 6 mps 730 mmHg 97%
    05:00 +3°C° 1.7 mm 6 mps 730 mmHg 97%
    06:00 +3°C° 0.9 mm 6 mps 730 mmHg 97%
    07:00 +3°C° 0.9 mm 6 mps 730 mmHg 97%
    08:00 +3°C° 0.9 mm 6 mps 730 mmHg 97%
    09:00 +3°C° 0.6 mm 5 mps 731 mmHg 97%
    10:00 +3°C° 0.6 mm 5 mps 731 mmHg 97%
    11:00 +3°C° 0.6 mm 5 mps 731 mmHg 96%
    12:00 +2°C° 0.2 mm 5 mps 731 mmHg 96%
    13:00 +1°C° 0.2 mm 5 mps 731 mmHg 95%
    14:00 0°C° 0.2 mm 5 mps 731 mmHg 94%
    15:00 0°C° 0.1 mm 5 mps 731 mmHg 93%
    16:00 -1°C° 0.1 mm 5 mps 731 mmHg 93%
    17:00 -2°C° 0.1 mm 5 mps 732 mmHg 92%
    18:00 -2°C° 0.1 mm 5 mps 732 mmHg 92%
    19:00 -2°C° 0.1 mm 5 mps 732 mmHg 92%
    20:00 -2°C° 0.1 mm 5 mps 732 mmHg 92%
    21:00 -4°C° 0.2 mm 5 mps 732 mmHg 92%
    22:00 -4°C° 0.2 mm 5 mps 732 mmHg 92%
    23:00 -3°C° 0.2 mm 4 mps 732 mmHg 92%
    Mostrar más